Weather History for KLAS - October, 2011

Change the Weather History Date:

Monday, October 24, 2011

  Actual Average Record
Temperature  
Mean Temperature 74 °F 66 °F  
Max Temperature 87 °F 77 °F 92 °F (1959)
Min Temperature 61 °F 55 °F 36 °F (1953)
Degree Days  
Heating Degree Days 0 2  
Month to date heating degree days 18 17  
Since 1 July heating degree days 18 18  
Cooling Degree Days 9 3  
Month to date cooling degree days 194 161  
Year to date cooling degree days 3523 3538  
Growing Degree Days 24 (Base 50)    
Moisture  
Dew Point 30 °F    
Average Humidity 22    
Maximum Humidity 32    
Minimum Humidity 12    
Precipitation  
Precipitation 0.00 in 0.01 in 1.05 in (1992)
Month to date precipitation 0.21 0.19  
Year to date precipitation 2.09 3.25  
Snow  
Snow 0.00 in 0.00 in 0.00 in ()
Month to date snowfall 0.0 0.0  
Since 1 July snowfall 0.0 0.0  
Since 1 September snowfall 0.0 0.0  
Snow Depth 0.00 in    
Sea Level Pressure  
Sea Level Pressure 29.87 in    
Wind  
Wind Speed 8 mph (SSW)    
Max Wind Speed 23 mph    
Max Gust Speed 30 mph    
Visibility 10 miles    
Events      
T = Trace of Precipitation, MM = Missing Value Source: NWS Daily Summary

Daily Weather History Graph

Daily Weather History Graph

Search for Another Location

Airport or City:

Trip Planner

Search our weather history database for the weather conditions in past years. The results will help you decide how hot, cold, wet, or windy it might be!

Date:

Astronomy

Oct. 24, 2011 Rise Set
Actual Time 6:55 AM PDT 5:53 PM PDT
Civil Twilight 6:29 AM PDT 6:19 PM PDT
Nautical Twilight 5:59 AM PDT 6:49 PM PDT
Astronomical Twilight 5:29 AM PDT 7:19 PM PDT
Moon 4:22 AM PDT (10/24) 4:18 PM PDT (10/24)
Length of Visible Light 11h 50m
Length of Day
10h 58m
Waning Crescent, 6% of the Moon is Illuminated
Oct 24
Waning Crescent
Oct 26
New
Nov 2
First Quarter
Nov 10
Full
Nov 18
Last Quarter

Hourly Weather History & Observations

Time (PDT) Temp. Dew Point Humidity Pressure Visibility Wind Dir Wind Speed Gust Speed Precip Events Conditions
12:56 AM 66.9 °F 27.0 °F 22% 29.90 in 10.0 mi SSW 9.2 mph - N/A   Clear
1:56 AM 64.0 °F 27.0 °F 25% 29.89 in 10.0 mi SSW 8.1 mph - N/A   Clear
2:56 AM 63.0 °F 27.0 °F 26% 29.89 in 10.0 mi SSW 6.9 mph - N/A   Clear
3:56 AM 64.0 °F 28.9 °F 27% 29.88 in 10.0 mi SW 6.9 mph - N/A   Scattered Clouds
4:56 AM 61.0 °F 30.0 °F 31% 29.89 in 10.0 mi WSW 3.5 mph - N/A   Mostly Cloudy
5:56 AM 63.0 °F 30.9 °F 30% 29.89 in 10.0 mi SSW 6.9 mph - N/A   Scattered Clouds
6:56 AM 62.6 °F 30.2 °F 30% 29.95 in 10.0 mi SSW 5.8 mph - N/A   Mostly Cloudy
7:56 AM 66.0 °F 30.9 °F 27% 29.92 in 10.0 mi SSW 4.6 mph - N/A   Mostly Cloudy
8:56 AM 69.1 °F 30.0 °F 23% 29.92 in 10.0 mi Calm Calm - N/A   Mostly Cloudy
9:56 AM 71.1 °F 30.0 °F 22% 29.93 in 10.0 mi SSE 4.6 mph - N/A   Mostly Cloudy
10:56 AM 75.9 °F 30.9 °F 19% 29.92 in 10.0 mi SE 4.6 mph - N/A   Mostly Cloudy
11:56 AM 79.0 °F 30.9 °F 17% 29.90 in 10.0 mi Variable 3.5 mph - N/A   Mostly Cloudy
12:56 PM 82.4 °F 30.2 °F 15% 29.92 in 10.0 mi Variable 3.5 mph - N/A   Scattered Clouds
1:56 PM 84.9 °F 30.9 °F 14% 29.83 in 10.0 mi SSE 4.6 mph - N/A   Mostly Cloudy
2:56 PM 87.1 °F 28.9 °F 12% 29.81 in 10.0 mi Variable 3.5 mph - N/A   Mostly Cloudy
3:56 PM 86.0 °F 28.9 °F 13% 29.81 in 10.0 mi Calm Calm - N/A   Mostly Cloudy
4:56 PM 86.0 °F 32.0 °F 14% 29.80 in 8.0 mi SW 21.9 mph 29.9 mph N/A   Mostly Cloudy
5:56 PM 84.0 °F 26.1 °F 12% 29.82 in 10.0 mi SW 12.7 mph - N/A   Mostly Cloudy
6:56 PM 82.0 °F 28.0 °F 14% 29.83 in 10.0 mi SSW 12.7 mph - N/A   Mostly Cloudy
7:56 PM 80.6 °F 28.4 °F 15% 29.88 in 10.0 mi SSW 13.8 mph - N/A   Mostly Cloudy
8:56 PM 80.1 °F 30.0 °F 16% 29.83 in 10.0 mi South 9.2 mph - N/A   Mostly Cloudy
9:56 PM 78.1 °F 30.9 °F 18% 29.83 in 10.0 mi SSW 10.4 mph - N/A   Mostly Cloudy
10:56 PM 78.1 °F 33.1 °F 19% 29.83 in 10.0 mi South 9.2 mph - N/A   Mostly Cloudy
11:56 PM 75.9 °F 35.1 °F 23% 29.83 in 10.0 mi SSW 9.2 mph - N/A   Mostly Cloudy